Location: *
(52.2090°N, 4.1550°W)
Time: 01:27:23
(UTC+00:00)

Cosmos 2333 Rocket - Pass Details

Date: 19 July 2019
Orbit: 842 x 860 km, 70.8° (Epoch: 21 August)

Event Time Altitude Azimuth Distance (km) Brightness Sun altitude
Exits shadow 23:08:44 - 213° (SSW) 2,679 4.4 -15.3°
Reaches altitude 10° 23:09:16 10° 213° (SSW) 2,477 4.3 -15.3°
Maximum altitude 23:14:59 82° 302° (WNW) 865 2.3 -15.5°
Drops below altitude 10° 23:20:42 10° 30° (NNE) 2,480 5.3 -15.8°
Sets 23:23:09 0° 32° (NNE) 3,417 6.0 -15.9°
